Flag for Switzerland Weather past 2 weeks in Ilanz, Graubünden, Switzerland

Now
36 °F

Chilly.


Feels Like: 33 °F
Forecast: 18 / 32 °F
Wind: 5 mph from Southeast

Location: Chur-Ems

Current Time: Jan 29, 2015 at 3:52:09 PM

Latest Report: Jan 29, 2015 at 3:00 PM


Visibility: N/A

Pressure: 29.38 "Hg

Humidity: 78%

Dew point: 30 °F

Location of IlanzLocation

Historic Weather in Ilanz — Graph

°F

Ilanz temperature yesterday

Maximum temperature yesterday: 39 °F (at 3:00 PM)
Minimum temperature yesterday: 30 °F (at 8:00 AM)
Average temperature yesterday: 34 °F

Past Weeks' High & Low Weather Summary

 TemperatureHumidityPressure
High55 °F (Jan 15, 3:00 PM)96% (Jan 27, 5:00 AM)30.49 "Hg (Jan 27, 5:00 AM)
Low24 °F (Jan 26, 8:00 AM)33% (Jan 15, 4:00 PM)29.44 "Hg (Jan 29, 2:00 PM)
Average35 °F74%30.05 "Hg
* Reported Jan 14 2:00 PM — Jan 29 2:00 PM, Ilanz, Weather by CustomWeather, © 2014

Note: Actual official high and low records may vary slightly from our data, if they occured in-between our weather recording intervals... More about our weather records

Advertising

Ilanz weather history for previous 24 hours

 ConditionsComfort  
Time TempWeatherWind HumidityBarometerVisibility
2:00 PM
Jan 29
35 °FChilly.5 mph86%29.44 "HgN/A
1:00 PM34 °FChilly.3 mph87%29.50 "HgN/A
12:00 PM32 °FChilly.2 mph92%29.60 "HgN/A
11:00 AM32 °FChilly.2 mph93%29.62 "HgN/A
10:00 AM31 °FSnow. Low clouds.1 mph93%29.65 "Hg2 mi
9:00 AM31 °FChilly.1 mph94%29.67 "HgN/A
8:00 AM31 °FChilly.No wind95%29.67 "HgN/A
7:00 AM31 °FSnow. Low clouds.1 mph93%29.67 "Hg1 mi
6:00 AM31 °FChilly.1 mph93%29.69 "HgN/A
5:00 AM33 °FChilly.1 mph69%29.67 "HgN/A
4:00 AM33 °FPassing clouds.2 mph62%29.67 "Hg11 mi
3:00 AM32 °FChilly.2 mph64%29.69 "HgN/A
2:00 AM32 °FChilly.12 mph63%29.71 "HgN/A
1:00 AM33 °FPassing clouds.5 mph60%29.75 "Hg11 mi
12:00 AM33 °FChilly.6 mph61%29.75 "HgN/A
11:00 PM
Jan 28
33 °FChilly.15 mph62%29.80 "HgN/A
10:00 PM32 °FChilly.8 mph66%29.85 "HgN/A
9:00 PM32 °FChilly.5 mph66%29.90 "HgN/A
8:00 PM33 °FChilly.5 mph66%29.92 "HgN/A
7:00 PM34 °FPassing clouds.7 mph62%29.93 "Hg11 mi
6:00 PM33 °FChilly.5 mph68%29.97 "HgN/A
5:00 PM37 °FChilly.9 mph56%29.98 "HgN/A
4:00 PM36 °FPartly sunny.5 mph58%30.03 "Hg12 mi
3:00 PM39 °FChilly.2 mph52%30.05 "HgN/A
Weather by CustomWeather, © 2014

See weather overviewHow to use our weather pages